Waarnemingen

Advertentie
Mijn weer
Lulea/Kallax, Zweden (2186): temperatuur & dauwpunt: 19.04.2019 06:00:00 - 25.04.2019 06:00:00 (CEST)Lulea/Kallax, Zweden (2186): windsnelheid & windstoten: 19.04.2019 06:00:00 - 25.04.2019 06:00:00 (CEST)Lulea/Kallax, Zweden (2186): windrichting: 19.04.2019 06:00:00 - 25.04.2019 06:00:00 (CEST)Lulea/Kallax, Zweden (2186): luchtdruk: 19.04.2019 06:00:00 - 25.04.2019 06:00:00 (CEST)Lulea/Kallax, Zweden (2186): zicht: 19.04.2019 06:00:00 - 25.04.2019 06:00:00 (CEST)Lulea/Kallax, Zweden (2186): neerslag: 19.04.2019 06:00:00 - 25.04.2019 06:00:00 (CEST)
Datum & Tijd tt [°C] td [°C] ff [km/u] ff [kn] fx [km/u] fx [kn] dd ppp [hPa] vv [km] rr [mm]
25.04.2019 06:00:00 -0,6 -1,3 0 0 7 4 N 1025,6 8 0,0
25.04.2019 05:00:00 -1,3 -2,1 0 0 7 4 N 1025,5 6 0,0
25.04.2019 04:00:00 -0,4 -1,2 0 0 0 0 N 1025,6 4,6 0,0
25.04.2019 03:00:00 0,7 -0,3 0 0 0 0 N 1025,4 9 0,0
25.04.2019 02:00:00 0,6 -0,3 0 0 7 4 N 1025,2 7 0,0
25.04.2019 01:00:00 0,8 -0,2 0 0 4 2 N 1025,3 4,7 0,0
25.04.2019 00:00:00 1,6 0,6 0 0 0 0 N 1025,3 10 0,0
24.04.2019 23:00:00 2,3 0,8 0 0 0 0 N 1025,2 10 0,0
24.04.2019 22:00:00 3,0 1,5 5 3 7 4 ZZO 1024,9 10 0,0
24.04.2019 21:00:00 4,4 0,7 0 0 7 4 N 1024,6 10 0,0
24.04.2019 20:00:00 7,6 2,3 0 0 4 2 N 1024,2 10 0,0
24.04.2019 19:00:00 8,8 1,9 5 3 11 6 ZZO 1024,1 10 0,0
24.04.2019 18:00:00 10,3 1,1 8 4 11 6 ZO 1024,1 10 0,0
24.04.2019 17:00:00 10,5 1,3 8 4 11 6 ZO 1024,3 10 0,0
24.04.2019 16:00:00 11,7 1,0 8 4 14 8 ZO 1024,6 10 0,0
24.04.2019 15:00:00 12,4 0,8 9 5 14 8 ZZO 1024,7 10 0,0
24.04.2019 14:00:00 13,6 1,3 9 5 14 8 ZZO 1024,6 10 0,0
24.04.2019 13:00:00 14,6 1,1 9 5 11 6 ZO 1024,6 10 0,0
24.04.2019 12:00:00 15,0 1,9 9 5 11 6 ZO 1024,3 10 0,0
24.04.2019 11:00:00 14,6 1,1 2 1 7 4 - 1024,2 10 0,0
24.04.2019 10:00:00 12,9 0,9 2 1 11 6 - 1023,9 10 0,0
24.04.2019 09:00:00 11,3 0,7 0 0 11 6 N 1023,7 10 0,0
24.04.2019 08:00:00 9,6 1,0 8 4 14 8 NW 1023,4 10 0,0
24.04.2019 07:00:00 5,9 0,4 4 2 7 4 - 1023,1 10 0,0
24.04.2019 06:00:00 2,1 -1,2 2 1 4 2 NNW 1022,8 10 0,0
24.04.2019 05:00:00 1,0 -1,7 0 0 0 0 N 1022,7 10 0,0
24.04.2019 04:00:00 0,6 -2,1 0 0 7 4 N 1022,6 10 0,0
24.04.2019 03:00:00 1,2 -1,5 0 0 7 4 N 1022,5 10 0,0
24.04.2019 02:00:00 2,4 -1,4 0 0 4 2 N 1021,9 10 0,0
24.04.2019 01:00:00 3,1 -1,3 0 0 4 2 N 1021,7 10 0,0
24.04.2019 00:00:00 4,9 -0,9 0 0 7 4 N 1021,5 10 0,0
23.04.2019 23:00:00 4,8 0,6 0 0 7 4 N 1021,3 10 0,0
23.04.2019 22:00:00 4,8 1,6 0 0 25 14 N 1021,1 10 0,0
23.04.2019 21:00:00 5,8 2,3 0 0 7 4 N 1020,5 10 0,0
23.04.2019 20:00:00 5,9 2,0 5 3 11 6 OZO 1020,2 10 0,0
23.04.2019 19:00:00 10,0 3,7 4 2 11 6 ZO 1019,8 10 0,0
23.04.2019 18:00:00 13,2 4,9 8 4 22 12 ZO 1019,6 10 0,0
23.04.2019 17:00:00 15,4 5,3 11 6 22 12 ZZW 1019,4 10 0,0
23.04.2019 16:00:00 16,5 5,1 11 6 18 10 ZZW 1019,5 10 0,0
23.04.2019 15:00:00 16,9 5,2 13 7 18 10 Z 1019,4 10 0,0
23.04.2019 14:00:00 17,1 5,7 11 6 18 10 ZZO 1019,4 10 0,0
23.04.2019 13:00:00 16,9 5,8 9 5 18 10 ZW 1019,2 10 0,0
23.04.2019 12:00:00 18,2 4,0 9 5 25 14 ZZO 1019,0 10 0,0
23.04.2019 11:00:00 16,6 4,6 15 8 25 14 WZW 1019,0 10 0,0
23.04.2019 10:00:00 15,3 5,5 9 5 14 8 WZW 1019,0 10 0,0
23.04.2019 09:00:00 13,6 5,7 0 0 7 4 N 1018,9 10 0,0
23.04.2019 08:00:00 8,2 4,6 5 3 7 4 OZO 1018,7 10 0,0
23.04.2019 07:00:00 5,5 3,8 4 2 7 4 - 1018,4 10 0,0
23.04.2019 06:00:00 4,7 3,2 2 1 11 6 - 1018,2 10 0,0
23.04.2019 05:00:00 2,5 1,6 2 1 7 4 ZZO 1018,1 10 0,0
23.04.2019 04:00:00 3,8 2,2 4 2 11 6 - 1018,1 10 0,0
23.04.2019 03:00:00 2,5 1,6 5 3 11 6 ZO 1018,2 10 0,0
23.04.2019 02:00:00 3,2 2,0 8 4 14 8 Z 1018,2 10 0,0
23.04.2019 01:00:00 4,0 2,7 8 4 14 8 Z 1018,1 10 0,0
23.04.2019 00:00:00 5,4 3,6 8 4 11 6 ZZO 1018,4 10 0,0
22.04.2019 23:00:00 5,5 3,3 4 2 14 8 - 1018,4 10 0,0
22.04.2019 22:00:00 5,5 3,2 11 6 18 10 ZZW 1018,5 10 0,0
22.04.2019 21:00:00 5,4 3,1 9 5 22 12 ZZW 1018,6 10 0,0
22.04.2019 20:00:00 5,5 2,8 9 5 14 8 ZZW 1018,5 10 0,0
22.04.2019 19:00:00 4,9 2,4 11 6 18 10 Z 1018,7 10 0,0
22.04.2019 18:00:00 5,9 3,1 15 8 22 12 ZZW 1018,8 10 0,0
22.04.2019 17:00:00 6,1 2,6 11 6 18 10 ZZW 1018,9 10 0,0
22.04.2019 16:00:00 8,2 3,3 11 6 22 12 ZZW 1019,1 10 0,0
22.04.2019 15:00:00 5,7 2,3 9 5 22 12 ZZO 1019,3 10 0,0
22.04.2019 14:00:00 7,6 2,1 13 7 22 12 ZZO 1019,6 10 0,0
22.04.2019 13:00:00 8,9 2,0 15 8 22 12 Z 1019,8 10 0,0
22.04.2019 12:00:00 10,1 0,7 13 7 22 12 Z 1019,7 10 0,0
22.04.2019 11:00:00 9,6 1,2 9 5 14 8 Z 1019,4 10 0,0
22.04.2019 10:00:00 8,4 2,2 8 4 14 8 OZO 1019,4 10 0,0
22.04.2019 09:00:00 8,6 0,8 8 4 7 4 WZW 1019,1 10 0,0
22.04.2019 08:00:00 6,6 2,1 0 0 4 2 N 1018,7 10 0,0
22.04.2019 07:00:00 3,2 1,4 0 0 4 2 N 1018,4 10 0,0
22.04.2019 06:00:00 1,2 -0,3 0 0 0 0 N 1018,0 10 0,0
22.04.2019 05:00:00 1,0 0,1 0 0 4 2 N 1017,6 10 0,0
22.04.2019 04:00:00 1,9 0,3 0 0 7 4 N 1017,4 10 0,0
22.04.2019 03:00:00 3,7 1,4 4 2 11 6 ZW 1017,4 10 0,0
22.04.2019 02:00:00 4,2 1,7 2 1 14 8 WZW 1017,4 10 0,0
22.04.2019 01:00:00 5,4 2,6 8 4 14 8 WZW 1017,0 10 0,0
22.04.2019 00:00:00 5,5 2,7 11 6 14 8 WZW 1016,9 10 0,0
21.04.2019 23:00:00 6,3 2,7 9 5 18 10 WZW 1016,6 10 0,0
21.04.2019 22:00:00 7,3 3,2 8 4 14 8 WZW 1016,4 10 0,0
21.04.2019 21:00:00 7,5 3,2 8 4 18 10 ZW 1016,4 10 0,0
21.04.2019 20:00:00 6,9 3,3 8 4 22 12 ZW 1016,2 10 0,0
21.04.2019 19:00:00 6,9 3,3 9 5 25 14 WZW 1016,1 10 0,0
21.04.2019 18:00:00 7,1 3,3 15 8 22 12 ZZW 1016,2 10 0,0
21.04.2019 17:00:00 7,2 2,9 9 5 14 8 ZZW 1016,2 10 0,0
21.04.2019 16:00:00 7,5 3,0 15 8 22 12 Z 1016,4 10 0,0
21.04.2019 15:00:00 6,8 2,9 11 6 22 12 Z 1016,4 10 0,0
21.04.2019 14:00:00 6,6 3,6 9 5 22 12 Z 1016,7 10 0,0
21.04.2019 13:00:00 7,1 3,5 8 4 14 8 Z 1017,0 10 0,2
21.04.2019 12:00:00 7,5 1,8 8 4 14 8 ZZW 1017,2 10 0,0
21.04.2019 11:00:00 7,9 1,3 5 3 14 8 ZZW 1016,8 10 0,0
21.04.2019 10:00:00 7,7 0,7 8 4 11 6 Z 1016,7 10 0,0
21.04.2019 09:00:00 6,6 0,1 5 3 11 6 ZZW 1017,1 10 0,0
21.04.2019 08:00:00 6,2 -0,1 8 4 11 6 Z 1017,3 10 0,0
21.04.2019 07:00:00 6,5 -0,3 8 4 11 6 ZZW 1017,5 10 0,0
21.04.2019 06:00:00 6,4 -0,4 5 3 11 6 Z 1017,8 10 0,0
21.04.2019 05:00:00 5,8 -0,1 4 2 11 6 Z 1018,1 10 0,0
21.04.2019 04:00:00 5,1 0,3 2 1 7 4 Z 1018,3 10 0,0
21.04.2019 03:00:00 3,6 0,8 2 1 4 2 ZZO 1019,0 10 0,0
21.04.2019 02:00:00 2,6 0,3 0 0 4 2 N 1019,6 10 0,0
21.04.2019 01:00:00 2,1 0,3 4 2 7 4 Z 1020,3 10 0,0
21.04.2019 00:00:00 2,8 0,9 4 2 7 4 ZZO 1021,2 10 0,0
20.04.2019 23:00:00 2,5 0,4 2 1 4 2 ZZO 1021,7 10 0,0
20.04.2019 22:00:00 2,4 0,3 4 2 4 2 ZZO 1022,3 10 0,0
20.04.2019 21:00:00 3,3 1,0 4 2 11 6 Z 1022,9 10 0,0
20.04.2019 20:00:00 4,4 1,3 11 6 18 10 Z 1023,4 10 0,0
20.04.2019 19:00:00 5,8 1,3 11 6 18 10 Z 1023,6 10 0,0
20.04.2019 18:00:00 8,5 1,4 11 6 18 10 Z 1024,5 10 0,0
20.04.2019 17:00:00 8,6 1,7 13 7 22 12 Z 1025,3 10 0,0
20.04.2019 16:00:00 10,5 1,8 11 6 18 10 Z 1025,7 10 0,0
20.04.2019 15:00:00 11,5 2,8 9 5 14 8 Z 1026,4 10 0,0
20.04.2019 14:00:00 11,4 3,7 9 5 14 8 ZO 1026,9 10 0,0
20.04.2019 13:00:00 12,6 3,0 2 1 11 6 - 1027,3 10 0,0
20.04.2019 12:00:00 11,7 3,7 5 3 14 8 WZW 1027,7 10 0,0
20.04.2019 11:00:00 9,8 4,0 2 1 11 6 - 1028,1 10 0,0
20.04.2019 10:00:00 7,9 4,3 0 0 0 0 N 1028,2 10 0,0
20.04.2019 09:00:00 6,3 4,3 0 0 4 2 N 1028,5 10 0,0
20.04.2019 08:00:00 5,3 4,0 0 0 7 4 N 1028,6 10 0,0
20.04.2019 07:00:00 4,6 3,9 0 0 4 2 N 1029,1 10 0,0
20.04.2019 06:00:00 3,7 3,3 0 0 4 2 N 1029,1 10 0,0
20.04.2019 05:00:00 3,2 2,9 0 0 0 0 N 1029,2 7 0,0
20.04.2019 04:00:00 4,4 4,3 0 0 0 0 N 1029,4 9 0,0
20.04.2019 03:00:00 3,4 3,0 0 0 0 0 N 1029,8 10 0,0
20.04.2019 02:00:00 3,0 2,7 0 0 0 0 N 1030,2 4,4 0,0
20.04.2019 01:00:00 3,5 3,1 0 0 0 0 N 1030,8 3,0 0,1
20.04.2019 00:00:00 3,6 3,2 0 0 4 2 N 1031,0 2,8 0,2
19.04.2019 23:00:00 4,2 3,6 0 0 4 2 N 1031,3 9 0,3
19.04.2019 22:00:00 4,6 4,0 0 0 4 2 N 1031,5 10 0,3
19.04.2019 21:00:00 4,5 3,8 0 0 0 0 N 1031,6 10 0,3
19.04.2019 20:00:00 6,0 3,5 0 0 11 6 N 1031,7 10 0,3
19.04.2019 19:00:00 7,2 2,5 0 0 11 6 N 1031,8 10 0,0
19.04.2019 18:00:00 7,1 1,6 5 3 14 8 ZZO 1031,9 10 0,0
19.04.2019 17:00:00 8,2 2,4 5 3 7 4 ZO 1032,0 10 0,0
19.04.2019 16:00:00 10,3 2,2 2 1 14 8 - 1032,1 10 0,0
19.04.2019 15:00:00 10,1 2,7 9 5 22 12 NNW 1032,3 10 0,0
19.04.2019 14:00:00 9,4 2,5 13 7 18 10 NW 1032,5 10 0,0
19.04.2019 13:00:00 8,9 2,0 9 5 18 10 NNW 1032,6 10 0,0
19.04.2019 12:00:00 8,3 2,1 11 6 18 10 NW 1032,6 10 0,0
19.04.2019 11:00:00 7,4 1,9 9 5 14 8 NNW 1032,7 10 0,0
19.04.2019 10:00:00 6,1 1,4 11 6 18 10 NW 1032,4 10 0,0
19.04.2019 09:00:00 6,6 1,7 11 6 22 12 NNW 1032,1 10 0,0
19.04.2019 08:00:00 5,7 1,0 11 6 18 10 NW 1032,0 10 0,0
19.04.2019 07:00:00 5,8 0,4 13 7 18 10 NW 1031,7 10 0,0
19.04.2019 06:00:00 5,6 0,0 13 7 18 10 NW 1031,4 10 0,0

tt = temperatuur
td = dauwpunt
ff = windsnelheid
fx = windstoten
dd = windrichting
ppp = luchtdruk
vv = zicht
rr = neerslag

Weerstations in de omgeving